Date,TemperatureHighF,TemperatureAvgF,TemperatureLowF,DewpointHighF,DewpointAvgF,DewpointLowF,HumidityHigh,HumidityAvg,HumidityLow,PressureMaxIn,PressureMinIn,WindSpeedMaxMPH,WindSpeedAvgMPH,GustSpeedMaxMPH,PrecipitationSumIn
2013-1-1,47.2,40.1,35.3,42.6,34.2,26.8,89,79,71,30.31,30.02,10,5,15,0.01
2013-1-2,41.5,35.4,31.0,29.2,27.5,26.4,85,73,57,30.37,30.26,6,2,11,0.00
2013-1-3,49.8,39.1,29.2,31.3,28.1,25.5,87,67,44,30.48,30.34,8,2,11,0.03
2013-1-4,51.8,44.5,40.3,36.9,32.3,28.7,78,63,45,30.52,30.36,6,1,10,0.00
2013-1-5,56.7,45.6,38.2,39.0,37.1,34.6,90,73,50,30.36,30.19,6,2,12,0.00
2013-1-6,56.8,43.6,32.6,34.6,28.6,25.1,89,59,30,30.42,30.29,9,3,12,0.00
2013-1-7,55.6,42.2,28.0,34.9,30.3,24.6,89,65,43,30.34,30.09,8,2,11,0.04
2013-1-8,47.8,46.8,45.7,45.5,40.7,33.3,95,80,60,30.10,29.96,6,1,11,0.00
2013-1-9,56.5,52.6,46.9,54.9,51.4,45.5,96,95,94,30.11,29.92,11,4,17,0.15
2013-1-10,58.8,54.4,49.5,55.5,49.4,45.2,96,84,64,29.97,29.88,10,4,15,0.04
2013-1-11,72.4,60.7,48.6,61.5,50.3,43.1,88,70,42,29.92,29.73,10,5,19,0.00
2013-1-12,65.6,54.1,35.3,62.4,48.6,27.8,94,82,62,29.97,29.67,14,6,20,0.00
2013-1-13,42.9,35.7,30.6,27.8,22.7,20.1,74,60,44,30.30,29.95,12,7,20,0.00
2013-1-14,45.3,35.6,27.6,26.2,21.8,17.8,73,58,38,30.36,30.22,8,4,12,0.00
2013-1-15,38.3,34.4,29.8,30.7,25.9,20.9,91,72,60,30.26,30.17,8,5,14,0.09
2013-1-16,50.2,38.0,27.2,28.1,21.4,17.4,75,54,28,30.32,30.17,6,2,12,0.00
2013-1-17,60.5,47.1,35.1,35.4,31.0,26.7,75,55,34,30.49,30.25,9,2,11,0.00
2013-1-18,63.4,47.6,31.3,36.4,33.1,28.4,91,61,32,30.51,30.25,9,3,14,0.00
2013-1-19,68.1,53.7,40.4,45.9,40.5,34.3,82,63,37,30.25,30.11,9,3,13,0.00
2013-1-20,70.4,52.9,37.7,46.4,40.6,35.1,92,67,32,30.20,30.05,8,1,11,0.00
2013-1-21,57.4,46.8,39.5,40.7,32.6,25.3,86,60,39,30.31,30.10,8,3,10,0.00
2013-1-22,67.7,51.8,38.2,47.9,38.1,26.6,80,60,45,30.31,30.15,7,2,8,0.00
2013-1-23,76.0,63.4,52.6,55.7,52.0,47.1,84,68,46,30.25,30.08,9,4,12,0.00
2013-1-24,85.4,64.7,52.7,58.3,51.8,42.1,91,66,30,30.14,29.98,8,2,19,0.00
2013-1-25,52.0,46.9,43.6,43.9,41.1,38.3,94,81,69,30.20,30.01,7,3,11,0.00
2013-1-26,57.2,49.8,44.3,49.3,44.1,38.3,94,81,68,30.22,30.07,6,2,8,0.00
2013-1-27,76.5,63.8,51.0,63.5,57.2,49.3,99,81,54,30.07,29.88,14,6,23,0.00
2013-1-28,78.0,71.8,66.0,65.3,63.7,62.4,90,76,59,29.95,29.78,13,9,26,0.00
2013-1-29,79.8,67.3,55.5,65.4,56.4,28.6,90,70,33,29.79,29.39,16,8,28,0.31
2013-1-30,55.4,47.2,37.9,35.7,26.7,18.5,68,46,27,30.13,29.65,16,8,29,0.01
2013-1-31,69.6,52.7,37.5,31.5,24.6,19.3,61,37,17,30.31,30.06,11,3,21,0.00
2013-2-1,59.6,45.7,30.8,37.6,27.4,18.9,63,50,35,30.39,30.14,8,3,18,0.00
2013-2-2,67.9,56.8,48.0,43.8,37.4,31.0,77,51,27,30.31,30.12,8,3,13,0.00
2013-2-3,71.0,55.8,36.7,38.0,31.5,26.0,85,46,19,30.31,29.95,11,3,15,0.00
2013-2-4,76.0,63.5,54.2,56.4,49.4,28.8,86,62,32,29.96,29.74,9,4,15,0.01
2013-2-5,66.8,61.0,57.3,61.0,57.4,54.3,95,88,74,29.99,29.84,5,1,8,0.00
2013-2-6,76.9,63.8,56.1,62.6,56.9,53.4,96,80,48,29.98,29.80,12,5,18,0.01
2013-2-7,79.6,64.8,52.9,58.5,53.4,41.5,91,69,30,30.10,29.77,14,8,21,0.00
2013-2-8,65.0,53.5,42.5,44.0,31.5,19.5,73,48,18,30.24,30.10,7,3,16,0.00
2013-2-9,58.9,51.6,48.5,57.8,46.8,32.3,96,84,50,30.10,29.71,14,7,20,0.01
2013-2-10,69.4,59.2,47.4,63.7,35.9,20.5,96,48,16,29.99,29.62,15,4,19,0.84
2013-2-11,56.5,51.3,45.8,39.8,33.6,27.7,73,52,36,30.14,29.97,8,3,12,0.00
2013-2-12,49.1,46.9,41.1,45.8,43.1,36.3,94,87,73,30.05,29.84,13,4,18,0.24
2013-2-13,59.7,47.2,38.8,37.0,34.8,32.0,85,65,37,30.16,30.00,11,3,21,0.00
2013-2-14,70.6,54.3,38.8,40.0,36.1,29.6,86,55,23,30.09,29.96,6,1,8,0.00
2013-2-15,52.9,47.2,37.8,38.4,28.4,15.9,65,49,27,30.38,30.07,11,6,16,0.00
2013-2-16,58.7,45.0,30.6,29.3,26.6,23.7,83,51,29,30.42,30.15,5,1,8,0.00
2013-2-17,73.1,56.4,38.2,45.5,33.7,27.7,76,47,19,30.16,29.87,15,6,31,0.00
2013-2-18,77.4,62.1,51.0,55.7,43.5,29.8,79,54,26,30.12,29.73,16,9,31,0.00
2013-2-19,62.1,51.9,39.4,34.7,26.9,16.9,70,41,18,30.31,30.10,9,3,13,0.01
2013-2-20,52.7,45.4,42.4,40.3,37.3,31.8,83,74,45,30.16,29.76,11,6,18,0.07
2013-2-21,68.5,53.0,41.9,49.1,38.5,25.6,93,64,20,29.92,29.58,14,6,20,0.32
2013-2-22,48.9,39.5,30.6,36.6,26.1,20.5,77,60,43,30.16,29.92,9,4,13,0.00
2013-2-23,56.1,43.4,31.0,30.6,28.4,25.6,81,58,37,30.11,29.91,5,1,10,0.00
2013-2-24,70.6,53.9,34.6,45.5,37.9,28.9,83,57,36,29.92,29.57,14,6,19,0.00
2013-2-25,59.5,50.4,40.2,50.9,40.5,30.7,86,70,40,29.70,29.45,17,9,29,0.05
2013-2-26,59.9,47.5,39.4,33.2,31.8,30.2,73,56,34,29.90,29.70,16,7,30,0.00
2013-2-27,56.3,46.1,36.6,32.8,27.4,17.7,78,52,24,30.24,29.87,13,6,20,0.00
2013-2-28,59.4,47.1,36.2,29.9,26.6,23.0,71,48,26,30.31,30.17,11,5,19,0.00
2013-3-1,58.7,45.4,34.2,32.2,28.5,24.3,76,53,32,30.31,30.17,10,3,14,0.00
2013-3-2,57.7,43.8,31.6,28.6,25.8,22.4,78,52,29,30.45,30.23,8,4,14,0.00
2013-3-3,73.4,57.5,39.1,40.1,30.4,23.5,56,38,24,30.23,29.74,15,8,20,0.00
2013-3-4,88.9,70.8,56.1,46.8,38.9,31.3,59,36,13,29.80,29.54,14,6,26,0.00
2013-3-5,57.4,50.4,44.0,41.8,23.9,15.1,65,38,20,30.37,29.79,16,9,26,0.00
2013-3-6,63.1,48.7,34.0,25.1,19.9,10.2,62,35,13,30.46,30.18,6,2,8,0.00
2013-3-7,71.8,57.9,43.0,38.4,27.0,19.2,47,32,14,30.22,30.05,14,6,20,0.00
2013-3-8,62.0,59.2,55.5,57.1,51.9,39.1,87,77,49,30.15,29.94,13,8,17,0.00
2013-3-9,72.4,64.2,59.1,64.0,59.7,55.5,94,85,75,29.94,29.59,19,9,26,0.32
2013-3-10,59.3,51.3,41.7,57.6,37.4,29.8,95,60,44,30.08,29.69,17,7,25,0.19
2013-3-11,62.4,48.0,36.2,33.4,25.1,14.2,75,45,20,30.14,29.99,10,3,17,0.02
2013-3-12,69.2,54.6,42.5,31.3,27.6,23.9,55,37,22,30.30,30.03,11,3,19,0.01
2013-3-13,71.5,56.9,41.5,39.1,35.8,30.2,79,48,28,30.43,30.28,8,2,13,0.00
2013-3-14,80.0,63.5,47.0,47.1,41.4,36.3,71,47,28,30.32,30.13,10,4,16,0.00
2013-3-15,83.8,69.4,56.2,53.3,47.1,42.1,80,49,24,30.13,29.84,12,6,22,0.00
2013-3-16,84.9,71.0,58.7,57.9,52.7,42.4,76,54,38,29.84,29.63,14,8,23,0.00
2013-3-17,73.8,66.1,57.4,60.5,51.9,46.2,81,62,44,29.77,29.63,13,4,23,0.00
2013-3-18,70.7,63.1,57.7,61.1,48.0,38.0,88,60,40,29.97,29.59,11,4,19,0.00
2013-3-19,69.0,59.3,49.0,45.3,38.7,32.7,65,47,35,30.10,29.93,9,3,13,0.00
2013-3-20,69.7,58.7,47.3,38.3,32.1,23.7,69,39,20,30.29,30.01,7,2,12,0.00
2013-3-21,72.0,61.9,53.0,58.3,44.2,28.9,77,53,36,30.01,29.51,17,8,25,0.00
2013-3-22,65.5,52.9,46.7,59.2,48.1,41.5,89,84,72,29.83,29.51,12,6,21,0.00
2013-3-23,53.7,49.9,46.7,49.0,46.2,43.0,92,87,82,29.85,29.66,10,3,21,0.00
2013-3-24,53.2,44.9,37.5,46.1,27.9,18.2,91,54,30,30.19,29.83,14,9,28,0.00
2013-3-25,54.5,43.6,32.1,24.7,19.6,15.0,66,41,22,30.41,30.18,11,5,18,0.01
2013-3-26,61.3,46.6,31.5,27.0,22.8,17.7,74,42,22,30.51,30.28,5,1,8,0.00
2013-3-27,71.4,57.1,41.1,44.5,34.0,24.8,58,43,28,30.29,30.04,15,6,23,0.00
2013-3-28,71.7,62.3,50.9,57.4,52.0,44.1,85,69,58,30.19,30.04,14,7,17,0.00
2013-3-29,78.5,68.1,60.2,58.5,56.7,55.3,85,68,47,30.14,29.97,11,7,24,0.00
2013-3-30,79.9,68.0,55.0,62.8,59.3,53.0,94,75,53,30.09,29.83,11,3,24,0.11
2013-3-31,76.8,68.3,61.6,62.0,56.7,52.1,89,68,46,29.95,29.75,11,3,17,0.02
2013-4-1,82.6,68.0,52.5,57.1,50.4,46.3,92,59,29,30.04,29.89,8,2,12,0.00
2013-4-2,70.1,64.1,55.0,62.6,56.8,45.0,88,78,56,29.97,29.85,15,4,17,0.01
2013-4-3,54.6,48.3,42.9,48.8,45.2,40.7,94,89,69,30.15,29.87,12,4,24,0.01
2013-4-4,50.2,45.5,41.6,41.2,39.9,38.5,93,81,69,30.22,30.11,8,5,15,0.01
2013-4-5,71.0,55.4,40.1,48.8,43.6,37.4,91,68,41,30.25,30.00,8,2,9,0.01
2013-4-6,77.9,66.3,57.2,58.7,52.3,45.2,75,61,48,30.00,29.78,12,8,23,0.00
2013-4-7,73.2,67.3,61.3,62.7,59.9,56.8,86,78,69,29.86,29.68,13,8,25,0.01
2013-4-8,76.7,71.2,66.3,65.3,62.4,58.2,83,74,65,29.72,29.61,15,9,26,0.00
2013-4-9,82.1,74.4,69.7,67.4,65.2,61.6,84,73,59,29.65,29.56,15,9,26,0.01
2013-4-10,74.8,45.3,38.2,67.6,39.8,35.0,90,82,62,29.99,29.65,12,8,18,0.00
2013-4-11,65.1,50.4,39.7,41.0,32.9,-99.9,77,55,32,29.99,29.80,8,-7,12,0.00
2013-4-12,79.2,61.8,45.5,47.4,43.2,38.9,82,54,30,29.98,29.83,9,2,11,0.00
2013-4-13,78.9,68.0,53.9,50.9,47.2,43.9,76,49,31,29.95,29.73,11,5,17,0.00
2013-4-14,86.1,70.9,56.6,66.5,58.0,48.3,82,65,46,29.74,29.48,14,7,21,0.00
2013-4-15,88.4,78.1,69.3,67.9,66.3,64.4,88,69,46,29.70,29.55,19,8,20,0.00
2013-4-16,89.3,78.7,71.2,68.0,66.2,63.5,83,67,48,29.84,29.69,13,8,20,0.00
2013-4-17,85.8,77.8,72.3,70.1,68.1,66.4,91,73,54,29.83,29.55,18,12,27,0.00
2013-4-18,76.9,55.0,45.5,70.9,44.6,33.6,92,69,45,30.14,29.48,18,9,29,0.11
2013-4-19,66.4,52.1,39.7,36.9,30.6,23.4,81,49,22,30.29,30.12,12,3,16,0.12
2013-4-20,72.1,58.9,43.8,37.2,33.3,28.3,66,41,22,30.18,29.98,14,6,22,0.00
2013-4-21,71.7,61.7,49.2,51.3,46.7,36.0,78,59,43,30.16,30.02,10,5,18,0.00
2013-4-22,80.6,67.9,53.9,59.4,54.0,47.0,85,63,45,30.07,29.79,15,6,19,0.00
2013-4-23,69.0,53.9,41.1,61.2,47.8,37.2,89,80,68,30.19,29.74,11,7,16,0.00
2013-4-24,63.0,49.4,37.0,37.3,33.9,30.0,87,58,34,30.33,30.19,11,5,20,0.00
2013-4-25,75.5,63.6,52.3,45.7,39.5,33.8,57,42,27,30.32,30.10,11,3,20,0.00
2013-4-26,79.2,68.0,60.9,66.8,56.0,44.2,82,66,48,30.13,29.93,14,5,17,0.00
2013-4-27,76.4,68.7,61.0,66.5,58.9,54.7,92,72,50,30.10,29.94,8,3,14,0.00
2013-4-28,84.2,68.4,53.0,65.0,59.1,50.4,93,74,49,30.00,29.81,8,2,11,0.00
2013-4-29,87.7,76.1,62.8,66.6,60.6,55.3,89,61,36,29.86,29.72,11,5,21,0.00
2013-4-30,84.6,73.0,61.5,64.5,61.3,57.6,90,68,47,29.78,29.68,14,5,18,0.00
2013-5-1,82.6,73.5,66.0,66.8,64.0,62.0,91,73,52,29.91,29.73,9,4,15,0.00
2013-5-2,72.6,51.4,43.6,62.5,43.3,34.8,86,74,66,30.34,29.91,17,8,20,0.00
2013-5-3,66.6,53.8,40.8,35.0,30.4,24.0,71,45,22,30.33,30.01,19,6,22,0.00
2013-5-4,75.6,59.1,41.1,40.5,33.8,24.3,84,45,18,30.01,29.88,12,4,17,0.00
2013-5-5,71.5,59.3,46.5,47.2,42.0,38.0,76,54,38,30.15,30.01,11,3,15,0.00
2013-5-6,80.8,66.1,51.4,53.0,49.7,46.4,86,59,36,30.10,29.96,4,1,9,0.00
2013-5-7,87.2,73.5,57.7,55.8,53.0,49.9,85,52,29,30.03,29.87,7,2,10,0.00
2013-5-8,86.1,76.4,64.7,61.1,56.1,46.7,71,51,30,29.93,29.80,13,5,19,0.00
2013-5-9,76.9,69.4,65.1,66.0,62.4,55.1,92,79,51,29.96,29.79,12,4,17,0.05
2013-5-10,83.7,73.3,65.5,66.3,61.6,55.9,94,70,47,30.01,29.85,7,2,16,0.00
2013-5-11,81.8,71.3,59.9,56.2,51.5,44.6,83,53,29,30.14,30.00,12,4,17,0.01
2013-5-12,81.4,70.0,59.5,54.0,41.2,30.0,68,38,17,30.24,30.10,7,2,10,0.01
2013-5-13,91.0,74.0,58.7,52.1,46.5,41.5,57,40,21,30.19,30.06,12,3,14,0.00
2013-5-14,88.6,76.9,63.5,61.8,56.0,49.8,74,50,32,30.11,29.92,14,5,20,0.00
2013-5-15,78.9,73.8,63.9,69.7,66.6,61.5,92,79,64,29.98,29.67,18,9,23,0.00
2013-5-16,85.5,72.4,62.6,72.0,66.6,60.8,94,83,63,29.77,29.68,12,4,17,0.01
2013-5-17,91.7,81.2,73.8,73.8,71.8,70.0,91,75,54,29.79,29.71,20,5,17,0.01
2013-5-18,93.9,83.4,73.6,73.0,70.5,67.1,84,66,48,29.82,29.68,13,8,21,0.01
2013-5-19,90.9,81.2,70.5,72.0,68.3,65.0,85,66,52,29.76,29.59,17,10,23,0.00
2013-5-20,91.3,82.0,74.3,72.0,69.5,67.4,82,67,53,29.75,29.56,15,9,23,0.00
2013-5-21,82.7,72.8,61.0,70.4,65.3,57.4,92,78,63,29.84,29.59,15,6,23,0.00
2013-5-22,89.6,72.6,56.1,62.6,57.5,52.0,95,65,28,29.91,29.79,7,1,8,0.00
2013-5-23,86.8,77.9,71.0,72.9,69.3,62.5,91,75,62,30.00,29.82,15,3,16,0.34
2013-5-24,85.5,77.1,67.9,72.9,69.3,62.5,89,77,60,30.12,29.93,11,3,15,0.18
2013-5-25,84.8,73.8,67.5,71.8,67.1,63.3,92,80,55,30.11,29.98,18,4,20,0.19
2013-5-26,90.1,79.6,72.6,71.3,70.0,69.0,90,74,53,30.03,29.85,11,7,19,0.00
2013-5-27,87.0,78.7,71.8,70.0,68.4,66.4,84,71,56,29.93,29.73,15,7,20,0.00
2013-5-28,85.2,79.4,72.8,69.7,68.0,66.6,82,69,56,29.83,29.60,24,9,34,0.00
2013-5-29,85.0,77.1,72.5,72.4,69.8,67.7,93,79,65,29.74,29.62,22,10,30,0.23
2013-5-30,90.5,81.6,74.6,72.8,71.0,69.1,86,71,54,29.73,29.62,13,9,30,0.23
2013-5-31,92.0,83.4,76.9,74.5,72.4,70.8,84,70,54,29.77,29.61,15,8,21,0.00
2013-6-1,92.4,81.0,77.5,73.6,70.7,63.5,79,71,54,29.90,29.64,19,6,21,0.00
2013-6-2,87.3,77.2,66.3,62.7,55.7,47.6,77,50,26,30.04,29.89,8,3,15,0.00
2013-6-3,93.4,79.0,64.3,62.3,58.1,54.2,78,52,29,29.96,29.78,6,2,11,0.00
2013-6-4,93.3,82.2,71.5,69.6,66.3,61.5,80,60,43,29.91,29.70,13,6,20,0.00
2013-6-5,93.7,83.4,74.4,70.0,67.7,65.7,81,61,41,29.88,29.69,13,4,22,0.00
2013-6-6,81.0,74.1,67.4,70.5,66.3,64.6,94,78,62,29.91,29.75,11,3,17,0.89
2013-6-7,86.9,75.3,63.2,64.5,58.1,50.4,91,60,30,29.98,29.84,7,2,9,0.00
2013-6-8,90.1,77.8,63.1,62.3,59.6,56.6,84,56,37,29.90,29.72,16,4,15,0.00
2013-6-9,93.0,79.8,67.0,69.0,66.9,61.3,94,67,42,29.90,29.78,12,3,16,0.76
2013-6-10,101.7,85.4,70.6,71.6,65.8,55.7,88,57,22,29.91,29.83,8,3,14,0.00
2013-6-11,94.7,85.3,76.2,74.3,70.1,64.0,84,62,45,29.96,29.85,12,5,14,0.00
2013-6-12,97.8,86.5,76.7,72.4,70.3,67.7,84,61,40,30.00,29.85,13,4,19,0.00
2013-6-13,101.8,89.1,77.1,71.8,68.9,65.4,77,54,32,29.99,29.82,8,2,10,0.00
2013-6-14,98.9,88.1,77.0,70.2,67.8,65.2,71,53,38,29.93,29.81,6,1,9,0.00
2013-6-15,91.5,84.4,77.4,73.0,70.5,66.8,79,64,51,29.94,29.82,8,2,15,0.00
2013-6-16,98.3,87.4,75.2,72.4,70.1,66.9,88,59,41,29.96,29.79,8,2,15,0.00
2013-6-17,97.9,83.9,68.8,75.2,71.0,64.6,94,67,42,29.99,29.78,14,3,23,0.48
2013-6-18,90.4,78.5,70.0,74.5,69.6,65.8,91,75,52,29.96,29.81,15,2,19,0.09
2013-6-19,96.6,81.6,71.5,75.5,70.7,65.5,92,71,45,29.93,29.80,9,1,12,0.00
2013-6-20,96.6,85.6,75.8,71.8,69.4,66.7,84,61,41,29.98,29.85,11,4,17,0.00
2013-6-21,96.1,87.4,76.9,73.1,68.8,63.9,82,56,38,30.00,29.88,13,6,19,0.00
2013-6-22,96.8,86.8,74.7,71.8,68.3,66.1,81,56,39,29.97,29.81,13,6,19,0.00
2013-6-23,95.9,87.0,77.1,71.5,68.7,65.4,80,56,38,29.92,29.80,16,7,21,0.00
2013-6-24,96.4,87.1,76.4,71.4,68.3,65.9,81,56,40,29.96,29.80,13,7,19,0.00
2013-6-25,99.3,88.2,78.1,72.0,68.1,63.6,78,54,35,29.92,29.74,18,8,23,0.00
2013-6-26,100.0,89.6,77.3,72.7,70.2,64.2,79,54,39,29.89,29.77,11,6,19,0.00
2013-6-27,104.9,90.6,79.4,73.3,69.9,66.4,74,53,32,29.95,29.79,6,3,13,0.00
2013-6-28,106.1,98.4,86.7,70.3,66.2,61.6,51,36,26,29.86,29.75,9,4,15,0.00
2013-6-29,100.4,88.6,77.2,69.9,64.5,58.4,78,48,26,29.85,29.73,8,2,13,0.00
2013-6-30,94.3,84.6,76.4,66.3,59.2,55.0,70,44,29,29.89,29.76,11,4,15,0.00
2013-7-1,87.7,76.3,69.2,60.1,57.1,54.3,64,52,33,29.99,29.89,8,2,14,0.00
2013-7-2,91.3,79.4,68.0,58.5,52.1,47.6,62,41,24,30.05,29.95,7,2,14,0.00
2013-7-3,93.8,80.0,65.2,60.4,53.6,46.1,76,44,22,30.02,29.88,5,1,11,0.00
2013-7-4,98.6,84.8,72.1,63.5,58.1,51.4,68,43,22,29.95,29.81,8,3,13,0.00
2013-7-5,99.4,86.2,72.6,64.1,59.8,54.6,67,44,24,29.94,29.78,9,3,16,0.00
2013-7-6,98.5,87.4,75.1,66.7,62.2,55.7,65,45,26,29.88,29.78,10,3,14,0.00
2013-7-7,98.7,88.4,76.7,70.6,65.7,61.6,68,49,32,29.94,29.84,8,3,15,0.00
2013-7-8,99.4,87.2,77.5,73.8,70.0,64.1,80,58,35,30.02,29.91,11,5,16,0.00
2013-7-9,102.3,90.4,78.9,71.6,65.7,60.1,77,47,26,30.06,29.89,8,4,17,0.00
2013-7-10,104.6,92.6,82.1,72.3,67.8,62.5,70,47,28,29.99,29.82,8,3,15,0.00
2013-7-11,105.9,90.2,82.4,74.3,69.5,64.0,66,52,29,29.90,29.80,11,2,16,0.00
2013-7-12,103.0,89.8,76.8,71.5,68.8,64.1,79,54,30,29.91,29.80,7,2,13,0.00
2013-7-13,104.3,91.5,81.2,72.1,68.0,60.5,70,48,30,29.93,29.79,7,3,12,0.00
2013-7-14,85.4,73.0,67.8,69.0,65.3,58.8,93,79,43,29.98,29.82,6,1,14,0.56
2013-7-15,72.7,69.8,67.4,71.3,67.8,65.0,96,93,88,30.04,29.92,3,0,7,0.72
2013-7-16,89.1,76.7,70.5,73.9,71.0,68.0,96,84,55,30.14,30.03,13,2,13,0.10
2013-7-17,91.2,77.6,71.6,76.1,72.3,68.7,93,85,54,30.18,30.08,9,1,14,0.60
2013-7-18,97.0,81.9,72.2,75.0,71.6,67.9,95,74,40,30.14,29.96,7,1,14,0.01
2013-7-19,98.1,85.4,75.1,73.0,70.3,66.5,90,64,37,30.00,29.85,13,2,17,0.01
2013-7-20,98.6,83.9,75.7,73.4,70.3,67.6,85,66,38,29.93,29.79,8,1,14,0.00
2013-7-21,99.0,86.1,75.0,74.4,71.4,67.9,87,64,38,29.87,29.77,10,3,18,0.00
2013-7-22,99.9,88.2,77.7,75.1,72.4,68.8,87,62,40,29.91,29.78,10,3,18,0.01
2013-7-23,100.1,89.7,80.3,76.9,72.2,65.9,79,58,41,29.90,29.74,9,3,15,0.01
2013-7-24,101.2,87.4,78.3,72.5,70.0,66.4,75,58,38,30.00,29.78,10,2,12,0.00
2013-7-25,98.2,86.3,77.3,74.8,71.6,67.6,79,63,44,29.99,29.90,8,1,17,0.00
2013-7-26,97.2,85.0,78.9,77.7,72.6,69.9,87,67,45,29.95,29.80,7,3,16,0.14
2013-7-27,92.8,82.0,74.0,71.9,66.3,60.7,82,61,38,29.97,29.84,8,3,12,0.14
2013-7-28,94.9,82.5,69.5,72.3,67.9,64.9,88,63,42,29.93,29.80,8,2,12,0.00
2013-7-29,98.4,87.4,78.8,75.2,71.7,63.5,83,62,41,29.92,29.83,11,6,14,0.00
2013-7-30,102.0,88.9,78.8,73.2,69.7,63.6,79,55,37,30.02,29.87,8,4,14,0.00
2013-7-31,106.2,92.5,80.3,75.2,69.6,65.3,67,49,33,29.99,29.83,6,2,9,0.00
2013-8-1,105.3,94.0,82.8,77.0,71.4,-99.9,81,51,33,29.94,29.80,6,-5,13,0.00
2013-8-2,104.8,93.1,80.6,71.0,68.4,64.6,70,47,30,29.87,29.78,8,3,15,0.00
2013-8-3,103.7,91.6,80.3,70.6,67.0,63.2,68,46,29,29.94,29.84,9,4,15,0.00
2013-8-4,103.1,91.2,81.0,72.7,68.6,64.0,74,50,31,30.00,29.84,9,3,15,0.00
2013-8-5,105.1,92.3,82.2,71.7,67.3,63.1,69,47,27,29.93,29.76,9,3,15,0.00
2013-8-6,105.8,93.2,80.8,71.5,66.9,63.0,72,45,27,29.83,29.71,12,4,21,0.00
2013-8-7,107.5,93.8,80.9,72.0,68.1,64.7,70,46,27,29.82,29.67,10,4,14,0.00
2013-8-8,102.4,91.7,81.9,73.0,68.6,62.0,73,49,32,29.82,29.69,11,2,13,0.00
2013-8-9,105.2,90.7,82.4,71.7,67.5,60.5,65,48,27,29.90,29.75,8,2,10,0.00
2013-8-10,100.3,87.9,77.1,75.2,71.1,67.1,86,60,37,30.00,29.89,9,2,12,0.00
2013-8-11,104.0,91.0,77.9,72.0,69.3,65.0,78,52,30,30.01,29.87,6,1,11,0.00
2013-8-12,102.5,90.7,79.1,71.9,69.2,65.7,75,51,32,29.98,29.84,7,2,14,0.00
2013-8-13,102.2,87.8,80.3,75.0,69.9,66.0,76,56,35,29.94,29.82,10,2,15,0.03
2013-8-14,93.3,79.5,73.9,76.0,73.2,70.8,93,82,50,29.99,29.88,10,1,14,1.24
2013-8-15,90.8,80.1,73.5,72.0,67.6,63.8,88,67,48,30.01,29.89,9,2,10,1.24
2013-8-16,90.7,79.2,68.8,67.0,64.8,62.2,89,63,43,30.01,29.91,11,2,11,0.06
2013-8-17,91.4,80.1,67.8,62.9,60.5,58.0,79,53,34,30.06,29.92,6,1,11,0.06
2013-8-18,92.4,81.5,70.1,65.8,62.5,60.0,75,54,37,30.06,29.93,8,1,8,0.00
2013-8-19,97.5,84.0,72.2,66.2,62.5,59.0,75,51,29,30.02,29.87,11,1,11,0.00
2013-8-20,99.0,85.9,73.5,65.8,61.6,56.9,69,47,26,29.99,29.88,7,1,14,0.00
2013-8-21,96.8,85.2,75.1,70.1,66.0,61.0,77,54,37,30.03,29.91,8,2,13,0.00
2013-8-22,99.3,89.1,78.3,72.1,68.1,64.8,74,52,35,30.03,29.86,8,1,12,0.00
2013-8-23,101.3,90.3,80.3,73.6,68.7,64.7,72,51,32,29.97,29.82,10,2,11,0.00
2013-8-24,100.9,90.5,79.4,71.2,67.8,62.2,69,49,29,29.99,29.88,8,2,11,0.00
2013-8-25,98.4,89.3,79.5,71.3,67.7,64.6,70,50,34,30.08,29.97,13,3,14,0.00
2013-8-26,97.3,86.4,77.3,70.9,67.3,62.7,75,55,34,30.10,29.97,12,4,18,0.00
2013-8-27,94.0,81.9,74.1,72.0,69.6,66.8,86,68,42,30.07,29.96,16,3,13,0.00
2013-8-28,100.9,87.2,75.6,71.7,65.9,61.8,79,53,29,30.05,0.00,6,1,10,0.00
2013-8-29,103.6,90.6,77.8,68.9,65.1,62.3,68,45,28,30.01,29.88,5,1,10,0.00
2013-8-30,105.8,91.8,78.0,68.0,64.1,60.1,63,42,24,29.94,29.79,9,1,9,0.00
2013-8-31,106.5,92.7,79.1,67.5,63.6,61.0,62,40,24,29.84,29.71,6,1,11,0.00
2013-9-1,107.9,93.7,80.5,73.1,65.9,61.6,73,42,24,29.82,29.68,7,1,11,0.34
2013-9-2,93.1,82.4,75.6,74.2,71.6,68.8,91,71,48,29.96,29.78,6,0,13,0.13
2013-9-3,100.8,87.8,76.6,72.5,65.5,55.7,74,51,23,29.95,29.82,11,1,13,0.13
2013-9-4,102.4,88.3,74.9,71.0,65.7,60.9,76,50,29,29.98,29.88,6,1,11,0.00
2013-9-5,100.1,89.3,78.2,71.6,67.4,61.9,75,51,30,30.04,29.92,6,1,8,0.00
2013-9-6,102.3,89.6,77.8,70.6,66.0,61.5,70,48,28,30.03,29.87,7,1,9,0.00
2013-9-7,100.6,89.7,80.6,71.7,66.5,60.2,71,49,28,29.97,29.84,10,2,14,0.00
2013-9-8,97.6,85.9,73.5,71.3,66.8,63.2,83,56,35,29.92,29.80,10,2,12,0.00
2013-9-9,96.5,85.8,74.5,71.0,66.7,63.4,80,55,36,29.94,29.83,13,3,17,0.00
2013-9-10,95.2,84.0,76.6,72.0,67.3,60.0,81,59,36,30.04,29.92,12,2,12,0.00
2013-9-11,97.4,84.2,73.5,71.2,66.9,63.8,78,58,34,30.07,29.93,9,2,15,0.00
2013-9-12,98.1,86.9,74.9,69.4,66.9,64.7,75,53,35,30.02,29.86,6,0,13,0.00
2013-9-13,98.2,87.3,77.5,71.0,68.0,64.6,76,55,36,29.92,29.76,7,1,13,0.00
2013-9-14,95.1,85.2,77.3,69.0,64.9,62.5,66,52,37,29.91,29.80,9,3,13,0.00
2013-9-15,96.1,86.2,76.8,70.0,65.8,61.6,67,51,39,29.97,29.88,8,2,15,0.00
2013-9-16,97.3,87.0,77.1,71.2,65.9,59.6,71,51,30,30.03,29.90,9,1,11,0.00
2013-9-17,94.8,86.8,79.9,69.0,65.8,63.2,62,50,39,30.01,29.88,8,1,11,0.00
2013-9-18,97.1,87.8,79.8,71.6,66.1,60.6,71,50,32,29.96,29.80,11,3,18,0.00
2013-9-19,92.0,82.6,72.3,72.3,69.2,64.2,93,65,47,29.93,29.80,10,2,13,0.40
2013-9-20,73.5,71.6,68.5,71.8,68.4,-99.9,96,92,87,29.89,-32.77,9,-6,13,1.17
2013-9-21,84.9,71.9,60.6,64.0,53.8,45.7,86,58,28,29.97,29.83,9,3,14,1.17
2013-9-22,85.1,71.3,56.8,57.4,53.9,49.6,90,59,30,29.91,29.75,5,1,8,0.00
2013-9-23,88.2,73.5,58.9,58.5,54.5,51.9,84,55,30,29.83,29.69,12,2,13,0.00
2013-9-24,95.8,79.5,66.2,66.2,58.0,48.4,83,53,24,29.89,29.78,13,1,12,0.00
2013-9-25,97.4,79.0,61.0,60.0,55.2,50.1,85,49,21,29.86,29.71,7,0,8,0.00
2013-9-26,94.9,82.7,70.3,61.0,55.9,51.2,61,41,26,29.83,29.73,12,3,18,0.00
2013-9-27,87.9,80.6,72.1,72.0,67.3,57.0,77,64,51,29.87,29.76,12,6,18,0.00
2013-9-28,86.6,76.1,67.0,75.3,69.7,61.2,89,81,67,30.01,29.80,11,6,20,0.42
2013-9-29,83.2,71.8,62.3,61.0,54.7,47.7,80,58,30,30.04,29.88,7,2,12,0.42
2013-9-30,87.9,73.5,57.7,61.0,55.9,49.6,90,59,28,29.90,29.76,11,1,10,0.00
2013-10-1,90.1,76.5,64.4,71.1,64.6,60.0,89,69,37,29.90,29.78,12,2,14,0.00
2013-10-2,90.0,80.0,73.3,72.1,70.4,69.1,89,74,51,29.92,29.79,11,6,17,0.00
2013-10-3,92.2,81.9,74.4,72.9,70.3,66.2,88,70,45,29.87,29.73,13,6,18,0.00
2013-10-4,89.4,81.2,72.9,71.0,69.0,67.2,87,68,49,29.86,29.74,14,7,18,0.00
2013-10-5,80.2,64.3,51.0,69.6,55.3,41.6,92,74,51,30.09,29.80,13,5,18,0.41
2013-10-6,76.6,62.2,50.2,49.8,41.8,29.6,92,55,18,30.12,30.01,12,3,18,0.01
2013-10-7,84.2,66.2,49.6,51.8,44.7,37.7,87,52,20,30.13,30.02,7,0,14,0.01
2013-10-8,83.6,67.0,50.9,52.0,47.6,43.7,88,55,27,30.08,29.94,12,1,14,0.00
2013-10-9,83.5,70.2,57.3,56.4,53.5,51.0,84,58,35,30.03,29.92,15,2,14,0.00
2013-10-10,84.7,72.7,61.5,64.6,59.5,54.0,89,65,45,30.01,29.82,10,4,17,0.00
2013-10-11,86.6,77.5,70.2,70.9,67.7,60.9,86,72,59,29.88,29.76,17,5,17,0.00
2013-10-12,95.6,79.9,71.3,75.2,70.9,66.6,90,76,40,30.02,29.81,13,2,20,0.02
2013-10-13,76.6,71.7,68.2,68.6,66.9,64.9,92,85,74,30.16,30.00,7,1,20,0.02
2013-10-14,76.0,72.0,69.3,72.4,69.2,66.3,95,91,84,30.09,29.86,11,4,19,0.60
2013-10-15,77.5,65.6,52.4,72.5,62.5,50.7,94,90,79,30.06,29.84,10,4,23,0.79
2013-10-16,65.9,58.1,52.6,53.0,48.8,45.0,94,74,51,30.09,29.99,10,4,14,0.04
2013-10-17,72.9,59.1,46.7,49.6,45.2,42.0,89,63,34,30.12,29.95,4,0,14,0.04
2013-10-18,70.1,59.9,50.4,58.9,51.8,46.0,87,76,50,30.11,29.86,13,3,16,0.07
2013-10-19,66.4,53.4,41.5,46.3,40.0,36.1,85,64,33,30.22,30.06,10,3,20,0.07
2013-10-20,71.7,57.9,42.1,48.1,43.9,39.3,91,63,37,30.06,29.84,13,3,17,0.00
2013-10-21,73.0,60.4,52.6,59.7,51.7,46.8,85,73,63,30.10,29.86,14,2,12,0.00
2013-10-22,77.4,60.0,45.6,48.2,44.2,37.4,86,61,29,30.16,30.00,9,1,9,0.00
2013-10-23,85.5,65.4,48.7,50.8,47.6,44.0,88,58,24,30.10,29.99,7,0,12,0.00
2013-10-24,80.5,68.0,55.6,52.9,48.5,44.8,73,51,33,30.24,30.03,6,2,10,0.00
2013-10-25,70.9,59.9,49.7,50.5,46.6,42.0,80,62,47,30.37,30.20,8,2,16,0.00
2013-10-26,78.1,65.1,56.7,63.7,56.8,49.0,93,75,59,30.21,29.97,14,2,17,0.88
2013-10-27,70.4,62.7,58.4,60.5,57.9,55.8,95,85,63,30.10,29.97,4,0,11,0.94
2013-10-28,76.7,67.0,57.6,67.5,62.5,55.2,95,86,73,30.06,29.95,12,3,12,0.00
2013-10-29,77.3,72.6,69.7,70.2,67.8,65.8,88,85,78,30.02,29.93,12,8,20,0.00
2013-10-30,73.0,70.1,66.4,69.3,67.2,64.3,94,91,85,29.96,29.74,12,6,20,0.04
2013-10-31,74.1,67.7,54.8,69.0,53.6,39.5,95,65,32,29.84,29.64,17,5,24,0.01
2013-11-1,77.9,62.5,48.0,51.0,46.6,41.7,89,60,31,30.08,29.78,12,3,17,0.01
2013-11-2,69.1,58.1,48.5,43.4,38.5,32.4,77,51,28,30.27,30.07,14,3,15,0.00
2013-11-3,67.2,55.7,42.2,47.7,41.1,37.0,87,61,38,30.19,29.94,17,4,15,0.00
2013-11-4,60.3,58.2,55.1,58.9,53.7,48.0,95,85,68,30.06,29.94,10,4,15,0.09
2013-11-5,70.4,65.4,60.0,67.9,63.7,58.6,96,94,91,30.02,29.89,11,4,13,0.20
2013-11-6,71.0,55.3,45.6,68.2,46.9,36.7,92,75,46,30.35,29.91,12,4,20,0.03
2013-11-7,65.5,50.8,39.7,45.0,38.7,34.8,89,67,32,30.50,30.35,4,0,7,0.04
2013-11-8,65.8,55.0,42.2,45.0,41.4,36.4,91,63,35,30.37,30.10,10,2,16,0.00
2013-11-9,69.7,61.3,55.7,54.6,49.4,43.0,78,65,56,30.18,30.07,11,5,15,0.00
2013-11-10,67.2,57.9,51.0,52.0,49.7,47.3,87,75,57,30.31,30.18,5,0,6,0.00
2013-11-11,75.7,60.0,45.6,56.0,50.9,43.4,94,74,49,30.26,30.13,5,0,6,0.00
2013-11-12,60.9,48.1,34.8,56.4,33.4,20.4,90,60,31,30.68,30.26,13,6,22,0.00
2013-11-13,53.3,40.1,29.1,28.5,24.3,20.9,73,55,32,30.69,30.37,3,0,6,0.02
2013-11-14,59.3,47.0,32.4,46.2,31.6,24.9,78,58,27,30.37,29.99,13,4,14,0.02
2013-11-15,74.4,61.4,49.2,58.4,51.7,45.9,92,72,45,29.99,29.79,12,3,12,0.00
2013-11-16,80.6,70.6,63.2,68.8,62.4,58.0,88,76,53,29.82,29.62,12,5,19,0.00
2013-11-17,88.7,75.4,64.9,69.0,56.7,37.3,89,58,22,29.97,29.64,13,3,21,0.00
2013-11-18,71.5,63.6,54.9,37.1,31.7,25.7,43,31,19,30.14,29.98,13,2,13,0.00
2013-11-19,69.4,61.5,55.8,40.2,36.6,32.7,54,40,28,30.15,29.97,12,4,17,0.00
2013-11-20,66.0,58.8,50.0,55.2,46.4,38.6,78,63,51,29.99,29.85,17,6,15,0.00
2013-11-21,76.2,63.4,40.2,69.7,60.2,38.0,95,89,80,30.22,29.90,29,4,18,0.02
2013-11-22,40.0,35.2,33.5,37.9,32.2,30.0,92,89,82,30.47,30.23,13,8,22,0.13
2013-11-23,42.0,37.0,34.3,36.0,32.2,25.7,93,83,61,30.56,30.45,13,6,17,0.39
2013-11-24,36.7,33.9,32.8,28.0,25.3,21.0,79,71,61,30.59,30.35,13,3,13,0.13
2013-11-25,37.1,34.7,31.9,34.6,32.2,27.9,94,90,80,30.36,30.15,9,1,10,0.20
2013-11-26,52.2,41.7,35.1,36.0,31.2,26.0,93,69,41,30.39,30.16,22,7,22,0.10
2013-11-27,47.0,36.5,29.9,26.7,20.7,15.0,77,55,29,30.49,30.34,7,2,20,0.13
2013-11-28,55.3,41.1,27.9,29.4,25.3,20.0,78,56,31,30.44,30.34,8,1,20,0.05
2013-11-29,59.6,43.9,27.6,40.1,33.1,24.5,90,68,42,30.50,30.33,8,1,13,0.05
2013-11-30,67.7,53.6,40.6,52.9,46.4,36.5,92,77,58,30.33,30.11,10,2,15,0.00
2013-12-1,68.1,59.7,51.8,57.7,54.3,49.0,93,83,68,30.13,29.87,11,2,15,0.00
2013-12-2,71.0,54.0,42.6,51.1,44.6,38.8,95,74,33,29.88,29.64,7,0,5,0.01
2013-12-3,78.6,58.8,40.1,45.4,39.7,35.9,91,56,23,29.65,29.48,8,1,15,0.00
2013-12-4,83.6,63.1,48.0,49.9,43.9,34.5,67,51,29,29.87,29.54,9,2,18,0.00
2013-12-5,47.1,33.6,28.1,34.3,24.1,17.7,92,69,52,30.19,29.87,18,8,19,0.00
2013-12-6,30.3,26.3,23.8,28.4,23.2,18.2,94,88,79,30.54,30.14,0,0,18,0.00
2013-12-7,24.9,22.1,18.8,20.8,16.1,11.6,84,77,73,30.57,30.29,7,2,10,0.00
2013-12-8,35.6,29.5,24.8,30.7,26.2,20.4,95,87,78,30.30,30.05,5,1,8,0.24
2013-12-9,33.7,31.8,28.0,30.2,26.5,20.4,94,81,66,30.44,30.16,10,5,12,0.07
2013-12-10,39.1,29.0,20.4,22.5,18.3,14.5,79,65,43,30.54,30.35,8,1,15,0.27
2013-12-11,44.8,34.7,26.1,29.8,26.5,21.5,86,73,53,30.60,30.32,5,1,7,0.39
2013-12-12,47.8,37.6,26.9,34.0,28.8,22.6,85,71,54,30.62,30.29,2,0,4,0.19
2013-12-13,45.9,43.6,40.4,43.2,37.7,32.8,93,80,70,30.29,29.78,9,3,15,0.02
2013-12-14,45.1,41.2,34.1,43.5,35.2,27.1,95,80,57,30.33,29.76,12,4,16,0.02
2013-12-15,62.0,44.2,27.9,34.1,29.6,24.3,89,61,29,30.36,30.21,5,1,10,0.02
2013-12-16,67.7,51.0,37.4,37.8,34.2,30.5,77,56,30,30.23,30.12,7,1,9,0.00
2013-12-17,71.0,52.0,35.9,39.6,36.0,31.2,86,59,29,30.27,30.17,2,0,6,0.00
2013-12-18,70.5,53.3,35.7,49.0,40.9,32.2,90,66,35,30.24,29.95,10,3,17,0.00
2013-12-19,73.4,63.4,54.1,61.2,55.0,48.7,88,75,58,29.95,29.70,12,8,23,0.00
2013-12-20,68.1,53.0,33.3,62.3,49.4,31.5,93,88,73,29.84,29.70,12,4,22,0.02
2013-12-21,53.7,43.0,33.4,51.2,41.3,31.6,96,94,86,29.78,29.55,6,1,22,1.28
2013-12-22,43.1,36.9,30.6,41.8,30.1,25.2,95,77,59,30.41,29.77,11,6,15,1.28
2013-12-23,47.6,34.9,24.6,28.9,26.1,21.6,89,72,45,30.55,30.39,2,0,6,0.00
2013-12-24,53.0,39.4,25.8,34.8,29.6,22.7,89,70,47,30.55,30.23,12,4,15,0.00
2013-12-25,59.2,44.5,35.8,43.5,34.3,30.1,85,69,41,30.42,30.24,7,2,14,0.00
2013-12-26,56.1,40.9,30.2,34.9,29.7,25.4,92,68,34,30.45,30.32,3,0,6,0.00
2013-12-27,57.5,42.5,30.3,38.4,33.2,27.2,90,72,45,30.46,30.32,4,0,5,0.01
2013-12-28,62.2,48.4,34.8,43.9,37.8,32.2,91,69,44,30.31,29.95,9,2,12,0.01
2013-12-29,47.1,37.8,30.0,42.7,32.8,24.1,89,82,70,30.31,29.91,11,4,17,0.00
2013-12-30,44.6,34.4,27.9,24.9,20.3,16.5,76,57,39,30.42,30.27,8,3,14,0.00
2013-12-31,54.8,39.9,25.6,29.3,25.9,21.9,86,61,34,30.44,30.18,8,2,11,0.00
2014-1-1,71.5,49.7,33.6,47.4,35.4,23.8,82,60,37,30.23,29.84,14,4,21,0.00
2014-1-2,42.8,33.0,24.8,23.7,19.0,15.9,76,58,38,30.50,30.23,13,5,21,0.00